Location: Prairie State College
(41.5244°N, 87.6382°W)
Time: 15:15:58
(UTC-05:00)

ISS - All Passes

Search period start: 29 May 2015 00:00
Search period end: 08 June 2015 00:00
Orbit: 399 x 404 km, 51.6° (Epoch: 29 May)

Date Brightness Start Highest point End Pass type
(mag) Time Alt. Az. Time Alt. Az. Time Alt. Az.
29 May - 01:14:14 10° NW 01:16:29 17° NNW 01:18:42 10° NNE visible
29 May - 02:51:52 10° NNW 02:53:50 15° N 02:55:49 10° NE visible
29 May - 04:27:54 10° NW 04:30:57 36° NNE 04:34:01 10° E visible
29 May - 06:04:26 10° WNW 06:07:19 28° SW 06:10:10 10° SSE daylight
29 May - 22:43:02 10° SW 22:46:16 76° SE 22:49:31 10° ENE visible
30 May - 00:20:22 10° WNW 00:22:59 21° NNW 00:25:34 10° NE visible
30 May - 01:58:29 10° NNW 02:00:17 14° N 02:02:06 10° NE visible
30 May - 03:34:48 10° NW 03:37:33 24° NNE 03:40:19 10° E visible
30 May - 05:10:57 10° WNW 05:14:10 57° SW 05:17:22 10° SE daylight
30 May - 21:50:04 10° SSW 21:53:05 37° SE 21:56:08 10° ENE visible
30 May - 23:26:36 10° W 23:29:32 30° NNW 23:32:28 10° NE visible
31 May - 01:04:50 10° NW 01:06:43 14° N 01:08:36 10° NNE visible
31 May - 02:41:41 10° NNW 02:44:04 18° NNE 02:46:28 10° ENE visible
31 May - 04:17:40 10° NW 04:20:55 73° NNE 04:24:11 10° ESE visible
31 May - 05:55:23 10° WSW 05:56:59 13° SW 05:58:28 10° SSW daylight
31 May - 20:57:35 10° S 20:59:57 19° SE 21:02:23 10° E visible
31 May - 22:32:59 10° WSW 22:36:09 49° NNW 22:39:20 10° NE visible
01 Jun - 00:11:00 10° NW 00:13:09 16° N 00:15:18 10° NNE visible
01 Jun - 01:48:29 10° NNW 01:50:31 15° N 01:52:34 10° NE visible
01 Jun - 03:24:29 10° NW 03:27:36 40° NNE 03:30:42 10° E visible
01 Jun - 05:01:09 10° WNW 05:03:53 24° SW 05:06:35 10° S daylight
01 Jun - 21:39:37 10° SW 21:42:51 89° SSE 21:46:06 10° NE visible
01 Jun - 23:17:06 10° WNW 23:19:37 20° NNW 23:22:07 10° NNE visible
02 Jun - 00:55:07 10° NNW 00:56:56 14° N 00:58:46 10° NE visible
02 Jun - 02:31:21 10° NW 02:34:10 26° NNE 02:37:00 10° E visible
02 Jun - 04:07:34 10° WNW 04:10:43 48° SW 04:13:52 10° SE visible
02 Jun - 20:46:31 10° SSW 20:49:36 44° SE 20:52:43 10° ENE visible
02 Jun - 22:23:16 10° W 22:26:08 27° NNW 22:28:59 10° NE visible
03 Jun - 00:01:30 10° NW 00:03:20 14° N 00:05:10 10° NNE visible
03 Jun - 01:38:13 10° NNW 01:40:40 19° NNE 01:43:09 10° ENE visible
03 Jun - 03:14:12 10° NW 03:17:29 85° NE 03:20:44 10° SE visible
03 Jun - 04:52:33 10° WSW 04:53:28 11° SW 04:54:16 10° SW daylight
03 Jun - 19:53:51 10° S 19:56:26 22° SE 19:59:04 10° E daylight
03 Jun - 21:29:35 10° WSW 21:32:41 43° NNW 21:35:49 10° NE visible
03 Jun - 23:07:40 10° NW 23:09:44 16° N 23:11:48 10° NNE visible
04 Jun - 00:45:00 10° NNW 00:47:06 16° N 00:49:13 10° NE visible
04 Jun - 02:20:58 10° NW 02:24:07 46° NNE 02:27:17 10° ESE visible
04 Jun - 03:57:48 10° W 04:00:21 21° SW 04:02:51 10° S visible
04 Jun - 19:02:10 10° SSE 19:03:18 12° SE 19:04:34 10° ESE daylight
04 Jun - 20:36:05 10° WSW 20:39:19 78° NW 20:42:35 10° NE daylight
04 Jun - 22:13:44 10° WNW 22:16:09 19° NNW 22:18:34 10° NNE visible
04 Jun - 23:51:38 10° NNW 23:53:30 14° N 23:55:21 10° NE visible
05 Jun - 01:27:47 10° NW 01:30:41 29° NNE 01:33:36 10° E visible
05 Jun - 03:04:05 10° WNW 03:07:10 40° SW 03:10:15 10° SSE visible
05 Jun - 19:42:54 10° SW 19:46:02 52° SE 19:49:13 10° ENE daylight
05 Jun - 21:19:51 10° W 21:22:37 25° NNW 21:25:24 10° NE visible
05 Jun - 22:58:03 10° NW 22:59:52 14° N 23:01:40 10° NNE visible
06 Jun - 00:34:37 10° NNW 00:37:10 21° NNE 00:39:44 10° ENE visible
06 Jun - 02:10:39 10° NW 02:13:54 83° SW 02:17:10 10° SE visible
06 Jun - 18:50:04 10° SSW 18:52:49 26° SE 18:55:36 10° ENE daylight
06 Jun - 20:26:04 10° W 20:29:08 38° NNW 20:32:12 10° NE daylight
06 Jun - 22:04:13 10° NW 22:06:13 15° N 22:08:12 10° NNE visible
06 Jun - 23:41:24 10° NNW 23:43:35 16° NNE 23:45:47 10° NE visible
07 Jun - 01:17:21 10° NW 01:20:34 52° NNE 01:23:45 10° ESE visible
07 Jun - 02:54:24 10° W 02:56:44 18° SW 02:59:00 10° S night (unlit)
07 Jun - 17:57:59 10° SSE 17:59:39 14° SE 18:01:25 10° E daylight
07 Jun - 19:32:30 10° WSW 19:35:43 67° NNW 19:38:58 10° NE daylight
07 Jun - 21:10:16 10° WNW 21:12:37 18° NNW 21:14:55 10° NNE visible
07 Jun - 22:48:03 10° NNW 22:49:57 14° N 22:51:51 10° NE visible
